Regional Weather Roundup
Issued by NWS

Home | Current Version | Previous Version | Graphics & Text | Print | Product List | Glossary On
Versions: 1 2 3 4 5 6 7 8 9 10 11 12 13 14 15 16 17 18 19 20 21 22 23 24 25 26 27 28 29 30 31 32 33 34 35 36 37 38 39 40 41 42 43 44 45 46 47 48 49 50
000
ASUS43 KOAX 230202
RWRNE

WEATHER ROUNDUP FOR NEBRASKA
NATIONAL WEATHER SERVICE OMAHA NE
900 PM CDT FRI SEP 22 2017

NOTES: SATELLITE DATA IS BEING USED TO AUGMENT CLOUD COVER ABOVE
       12000 FEET.
       "FAIR" INDICATES FEW OR NO CLOUDS BELOW 12,000 FEET WITH NO
       SIGNIFICANT WEATHER AND/OR OBSTRUCTIONS TO VISIBILITY.


NEZ001>004-019>022-054>056-230300-
NEBRASKA PANHANDLE

CITY           SKY/WX    TMP DP  RH WIND       PRES   REMARKS
SCOTTSBLUFF    PTCLDY    61  43  51 NE8       29.86R
ALLIANCE       CLOUDY    58  42  55 NE17G26   29.87R
CHADRON        CLOUDY    57  37  47 NE18G25   29.91R
GORDON         FAIR      52  42  68 N6        29.93R
KIMBALL        CLOUDY    61  45  55 NE13      29.86F
SIDNEY         CLEAR     62  45  53 NE17      29.84F
$$

NEZ057>060-069>072-079>082-230300-
SOUTHWEST NEBRASKA

CITY           SKY/WX    TMP DP  RH WIND       PRES   REMARKS
NORTH PLATTE   CLOUDY    69  53  56 NE20G33   29.76R
IMPERIAL       PTCLDY    70  42  36 CALM      29.74R
LEXINGTON      MOCLDY    84  57  39 SE15      29.76R
MCCOOK         CLOUDY    86  56  35 S21G28    29.74R
OGALLALA       PTCLDY    68  49  49 NE22G29   29.79R
$$

NEZ005>010-023>029-035>040-094-230300-
NORTH CENTRAL NEBRASKA

CITY           SKY/WX    TMP DP  RH WIND       PRES   REMARKS
VALENTINE      CLOUDY    60  44  55 N10       29.89R
AINSWORTH      CLOUDY    60  52  73 N14       29.87R
BROKEN BOW     CLOUDY    74  57  55 N18G28    29.76R
O`NEILL        CLOUDY    65  60  83 NW3       29.83R
ORD            CLEAR     83  57  41 SE13      29.74R
THEDFORD       CLOUDY    64  52  65 N8        29.87R
$$

NEZ041-046>049-061>064-073>077-083>087-230300-
SOUTH CENTRAL NEBRASKA

CITY           SKY/WX    TMP DP  RH WIND       PRES   REMARKS
GRAND ISLAND   PTCLDY    83  65  54 S20G32    29.77S
AURORA         PTCLDY    83  63  51 S14G24    29.81R
HASTINGS       PTCLDY    84  62  47 S16       29.80S
HEBRON         PTCLDY    84  65  53 S8        29.84R
HOLDREGE       PTCLDY    83  57  41 SE16G23   29.78R
KEARNEY        MOCLDY    84  63  49 S22G29    29.77R
YORK           CLEAR     82  64  54 S14       29.83R
$$

NEZ011>018-030>034-042>045-230300-
NORTHEAST NEBRASKA

CITY           SKY/WX    TMP DP  RH WIND       PRES   REMARKS
NORFOLK        MOCLDY    82  64  54 S18G26    29.79R
ALBION         CLOUDY    83  65  55 S13G20    29.78R
BLAIR          CLEAR     84  68  58 S16G24    29.86R
COLUMBUS       CLOUDY    83  66  56 SE13      29.80R
FREMONT        PTCLDY    84  67  56 SE16      29.84R
TEKAMAH        MOCLDY    82  68  62 SE10      29.83R
WAYNE          CLOUDY    82  67  58 S16       29.79R
$$

NEZ050>053-065>068-078-088>093-230300-
SOUTHEAST NEBRASKA

CITY           SKY/WX    TMP DP  RH WIND       PRES   REMARKS
LINCOLN        PTCLDY    84  67  56 SE20G25   29.84R
OMAHA EPPLEY   PTCLDY    85  67  54 S17G25    29.86R
BEATRICE       CLEAR     84  67  57 SE12      29.86R
FALLS CITY     CLEAR     79  68  69 SE8       29.89R
NEBRASKA CITY  PTCLDY    81  68  65 S14G21    29.89R
PLATTSMOUTH    PTCLDY    82  68  60 SE14G20   29.88R
$$

NEZ044-045-051>053-067-230300-
OMAHA AREA

CITY           SKY/WX    TMP DP  RH WIND       PRES   REMARKS
OMAHA EPPLEY   PTCLDY    85  67  54 S17G25    29.86R
BLAIR          CLEAR     84  68  58 S16G24    29.86R
FREMONT        PTCLDY    84  67  56 SE16      29.84R
MILLARD        PTCLDY    84  70  61 SE12      29.86R
OFFUTT AFB     CLEAR     82  66  59 SE15      29.87R
PLATTSMOUTH    PTCLDY    82  68  60 SE14G20   29.88R
WAHOO          FAIR      82  67  59 SE13      29.84R
$$



USA.gov is the U.S. government's official web portal to all federal, state and local government web resources and services.